{"data":{"norad_id":58543,"epoch":"2026-05-25T03:52:29.481312Z","epoch_age_seconds":54372,"freshness":"FRESH","line1":"1 58543U 23192N   26145.16145233  .00000424  00000+0  23684-4 0  9991","line2":"2 58543  53.1613  66.8215 0001163 100.1934 259.9200 15.34389900137700","mean_motion":15.343899,"eccentricity":0.0001163,"inclination_deg":53.1613,"raan_deg":66.8215,"arg_perigee_deg":100.1934,"mean_anomaly_deg":259.92,"bstar":2.3684e-5,"rev_number":13770,"period_min":93.84837582677,"perigee_km":461.93766648905,"apogee_km":463.52885291145,"semimajor_km":6840.8702597003,"source":"CELESTRAK","updated_at":"2026-05-25T13:38:18.662880Z"}}